This is the latest recevied weather packets stored in our database for station/object OK2ILA-3. If no packets are shown the sender has not sent any weather packets the latest 10 day(s).
| Time | Temp. | Humidity | Pressure | Rain* | Wind** | Luminosity | Snow |
|---|---|---|---|---|---|---|---|
| 1777917519 | 17.22° C | 8% | 0 hPa | 0 mm | - | - | - |
| 1777916913 | 17.78° C | 5% | 4352 hPa | 0 mm | - | - | - |
| 1777916309 | 18.33° C | 29% | 4352 hPa | 0 mm | - | - | - |
| 1777915703 | 18.33° C | 16% | 4352 hPa | 0 mm | - | - | - |
| 1777915098 | 18.89° C | 77% | 4352 hPa | 0 mm | - | - | - |
| 1777914493 | 19.44° C | 12% | 4352 hPa | 0 mm | - | - | - |
| 1777913888 | 20° C | 29% | 4352 hPa | 0 mm | - | - | - |
| 1777913283 | 20° C | 4% | 4121.8 hPa | 0 mm | - | - | - |
| 1777912678 | 20° C | 56% | 4121.8 hPa | 0 mm | - | - | - |
| 1777912073 | 20.56° C | 12% | 17.6 hPa | 0 mm | - | - | - |
| 1777911466 | 20.56° C | 17% | 17.6 hPa | 0 mm | - | - | - |
| 1777910861 | 20.56° C | 7% | 69.6 hPa | 0 mm | - | - | - |
| 1777910256 | 20.56° C | 7% | 69.6 hPa | 0 mm | - | - | - |
| 1777909647 | 21.11° C | 100% | 4940.8 hPa | 0 mm | - | - | - |
| 1777909044 | 21.11° C | 12% | 4940.8 hPa | 0 mm | - | - | - |
| 1777908438 | 21.67° C | 77% | 72.4 hPa | 0 mm | - | - | - |
| 1777907831 | 21.67° C | 30% | 72.4 hPa | 0 mm | - | - | - |
| 1777907226 | 22.22° C | 94% | 72.4 hPa | 0 mm | - | - | - |
| 1777906620 | 22.22° C | 1% | 72.4 hPa | 0 mm | - | - | - |
| 1777906015 | 22.22° C | 77% | 17 hPa | 0 mm | - | - | - |
| 1777905410 | 21.11° C | 14% | 2048.5 hPa | 0 mm | - | - | - |
| 1777904800 | 21.67° C | 5% | 0 hPa | 0 mm | - | - | - |
| 1777904193 | 22.22° C | 12% | 2052.5 hPa | 0 mm | - | - | - |
| 1777903589 | 22.22° C | 23% | 0 hPa | 0 mm | - | - | - |
| 1777902981 | 22.78° C | 3% | 0 hPa | 0 mm | - | - | - |
* Rain latest 24 hours (hover to see other rain measurements)
** Current wind speed in m/s (hover to see current wind gust speed)